sat.trackr.live / text

‹ back to catalog

KX-09

NORAD 44520 · 2019-058B

PAYLOAD ACTIVE UNKNOWN

§ Identity

Operator
Country
PRC
Launch date
2019-08-30
Launch site
JSC
Launch vehicle
Mass (kg)
RCS (m²)

External: N2YO · Heavens-Above · Gunter

§ Orbital elements

Epoch: 2026-05-25T04:28:28.642368Z

Period
96.22 min
Inclination
97.7775°
Eccentricity
0.0011961
Mean motion
14.96598829 rev/d
Perigee alt
569.1 km
Apogee alt
585.7 km
Semi-major
6,955.6 km
B*
1.5869e-4
RAAN
158.6164°
Arg perigee
65.8698°
Mean anomaly
294.3773°
Rev number
36,659

§ Raw data

KX-091 44520U 19058B   26145.18644262  .00001751  00000+0  15869-3 0  99942 44520  97.7775 158.6164 0011961  65.8698 294.3773 14.96598829366595

JSON: /api/v1/satellites/44520 · /tle

For live sub-satellite position, see the globe view (requires WebGL).

§ Visibility from observer

Set your observer location to see the next 7 days of passes ≥ 10°. The values pass through the URL so the page stays shareable.

No JS? Fill the form by hand. The geolocation button needs JavaScript.